TimeEDT,TemperatureF,Dew PointF,Humidity,Sea Level PressureIn,VisibilityMPH,Wind Direction,Wind SpeedMPH,Gust SpeedMPH,PrecipitationIn,Events,Conditions,WindDirDegrees,DateUTC
12:53 AM,72.0,69.1,91,29.91,9.0,Calm,Calm,-,0.00,,Clear,0,2013-07-21 04:53:00
1:53 AM,71.1,68.0,90,29.91,6.0,Calm,Calm,-,N/A,,Clear,0,2013-07-21 05:53:00
2:53 AM,70.0,66.9,90,29.91,5.0,Calm,Calm,-,N/A,,Clear,0,2013-07-21 06:53:00
3:34 AM,68.0,66.2,94,29.93,2.5,Calm,Calm,-,N/A,,Clear,0,2013-07-21 07:34:00
3:45 AM,69.8,66.2,88,29.93,4.0,Calm,Calm,-,N/A,,Clear,0,2013-07-21 07:45:00
3:53 AM,69.1,66.9,93,29.91,5.0,Calm,Calm,-,N/A,,Clear,0,2013-07-21 07:53:00
4:53 AM,68.0,66.0,93,29.91,4.0,Calm,Calm,-,N/A,,Clear,0,2013-07-21 08:53:00
5:53 AM,68.0,66.0,93,29.94,4.0,Calm,Calm,-,N/A,,Clear,0,2013-07-21 09:53:00
6:53 AM,68.0,64.9,90,29.94,3.0,Calm,Calm,-,N/A,,Clear,0,2013-07-21 10:53:00
7:53 AM,71.1,68.0,90,29.95,5.0,Calm,Calm,-,N/A,,Clear,0,2013-07-21 11:53:00
8:26 AM,73.4,69.8,88,29.98,5.0,Calm,Calm,-,N/A,,Mostly Cloudy,0,2013-07-21 12:26:00
8:48 AM,73.4,69.8,88,29.98,6.0,SSE,3.5,-,N/A,,Partly Cloudy,160,2013-07-21 12:48:00
8:53 AM,73.9,70.0,87,29.96,6.0,Calm,Calm,-,N/A,,Partly Cloudy,0,2013-07-21 12:53:00
9:53 AM,75.9,70.0,82,29.97,7.0,Calm,Calm,-,N/A,,Mostly Cloudy,0,2013-07-21 13:53:00
10:17 AM,78.8,69.8,74,29.99,8.0,Calm,Calm,-,N/A,,Scattered Clouds,0,2013-07-21 14:17:00
10:53 AM,80.1,68.0,67,29.98,9.0,Calm,Calm,-,N/A,,Mostly Cloudy,0,2013-07-21 14:53:00
11:53 AM,81.0,69.1,67,29.98,8.0,Calm,Calm,-,N/A,,Scattered Clouds,0,2013-07-21 15:53:00
12:03 PM,80.6,69.8,70,30.00,8.0,Variable,4.6,-,N/A,,Mostly Cloudy,0,2013-07-21 16:03:00
12:15 PM,82.4,69.8,66,30.00,9.0,North,5.8,-,N/A,,Mostly Cloudy,10,2013-07-21 16:15:00
12:53 PM,81.0,68.0,65,29.98,10.0,North,4.6,-,N/A,,Scattered Clouds,360,2013-07-21 16:53:00
1:53 PM,82.0,66.9,60,29.97,10.0,NNE,6.9,-,N/A,,Clear,20,2013-07-21 17:53:00
2:53 PM,81.0,64.9,58,29.97,10.0,NNE,6.9,-,N/A,,Clear,30,2013-07-21 18:53:00
3:53 PM,82.0,64.9,56,29.97,10.0,NNE,8.1,-,N/A,,Clear,30,2013-07-21 19:53:00
4:53 PM,81.0,66.9,62,29.96,10.0,NNE,6.9,-,N/A,,Clear,20,2013-07-21 20:53:00
5:53 PM,80.1,64.9,60,29.95,10.0,NNE,8.1,-,N/A,,Clear,30,2013-07-21 21:53:00
6:53 PM,79.0,64.9,62,29.95,10.0,NE,8.1,-,N/A,,Clear,40,2013-07-21 22:53:00
7:53 PM,75.0,66.0,73,29.94,10.0,ENE,5.8,-,N/A,,Clear,70,2013-07-21 23:53:00
8:53 PM,72.0,64.9,78,29.95,10.0,ENE,4.6,-,N/A,,Clear,60,2013-07-22 00:53:00
9:53 PM,70.0,66.0,87,29.97,10.0,East,3.5,-,N/A,,Clear,90,2013-07-22 01:53:00
10:53 PM,69.1,64.9,87,29.96,10.0,Calm,Calm,-,N/A,,Clear,0,2013-07-22 02:53:00
11:53 PM,66.9,64.0,90,29.98,10.0,Calm,Calm,-,N/A,,Clear,0,2013-07-22 03:53:00